FW3055 Weather Reports


time (UTC)temp
C
wind
direction
speed
KPH
gust
KPH
rain 1hr
cm
rain 24hr
cm
rain mn
cm
humidity
%
barometer
mb
20260906143006 21 5 9.7 16.1 0.00 0.00 0.00 1 1019.2
20260906141501 20 5 8.0 16.1 0.00 0.00 0.00 1 1019.1
20260906140108 20 5 9.7 14.5 0.00 0.00 0.00 1 1019.1
20260906134608 19 5 8.0 16.1 0.00 0.00 0.00 1 1019.1
20260906133054 18 5 12.9 17.7 0.00 0.00 0.00 1 1019.2
20260906131544 18 5 9.7 16.1 0.00 0.00 0.00 1 1019.2
20260906130040 18 5 8.0 14.5 0.00 0.00 0.00 1 1019.3
20260906124536 18 5 8.0 14.5 0.00 0.00 0.00 1 1019.0
20260906123038 17 5 9.7 16.1 0.00 0.00 0.00 1 1018.7
20260906121530 17 5 8.0 14.5 0.00 0.00 0.00 1 1018.3
20260906120023 17 5 6.4 12.9 0.00 0.00 0.00 1 1018.4
20260906114523 17 5 9.7 16.1 0.00 0.00 0.00 1 1018.1
20260906113014 17 5 6.4 12.9 0.00 0.00 0.00 1 1017.9
20260906111509 17 5 6.4 14.5 0.00 0.00 0.00 1 1017.8
20260906110005 17 5 11.3 19.3 0.00 0.00 0.00 1 1017.5
20260906104501 17 5 9.7 17.7 0.00 0.00 0.00 1 1017.2
20260906103057 17 5 8.0 14.5 0.00 0.00 0.00 1 1017.3
20260906101553 17 5 8.0 16.1 0.00 0.00 0.00 1 1017.4
20260906100049 17 5 9.7 14.5 0.00 0.00 0.00 1 1017.5
20260906094544 17 5 8.0 16.1 0.00 0.00 0.00 1 1017.3
20260906093049 17 5 6.4 14.5 0.00 0.00 0.00 1 1017.2
20260906091535 17 5 8.0 14.5 0.00 0.00 0.00 1 1017.0
20260906090033 17 5 4.8 8.0 0.00 0.00 0.00 1 1017.1
20260906084527 17 5 4.8 12.9 0.00 0.00 0.00 1 1017.1
20260906083024 18 5 8.0 12.9 0.00 0.00 0.00 1 1017.1
20260906081539 18 5 6.4 12.9 0.00 0.00 0.00 1 1017.1
20260906080015 18 5 8.0 14.5 0.00 0.00 0.00 1 1017.2
20260906074511 18 5 6.4 9.7 0.00 0.00 0.00 1 1017.0
20260906073015 18 5 6.4 12.9 0.00 0.00 0.00 1 1017.2
20260906071501 18 5 6.4 9.7 0.00 0.00 0.00 1 1017.3
20260906070120 19 5 4.8 8.0 0.00 0.00 0.00 1 1017.6
20260906064553 19 5 6.4 8.0 0.00 0.00 0.00 1 1017.7
20260906063049 20 5 4.8 8.0 0.00 0.00 0.00 1 1017.8
20260906061558 20 5 4.8 9.7 0.00 0.00 0.00 1 1017.6
20260906060039 20 5 6.4 12.9 0.00 0.00 0.00 1 1017.5
20260906054535 20 5 6.4 12.9 0.00 0.00 0.00 1 1017.5
20260906053037 20 5 4.8 12.9 0.00 0.00 0.00 1 1017.3
20260906051526 20 5 4.8 12.9 0.00 0.00 0.00 1 1017.1
20260906050022 20 5 6.4 14.5 0.00 0.00 0.00 1 1016.9
20260906044518 20 5 9.7 17.7 0.00 0.00 0.00 1 1016.9
20260906043023 20 5 6.4 14.5 0.00 0.00 0.00 1 1017.0
20260906041511 20 5 9.7 20.9 0.00 0.00 0.00 1 1016.7
20260906040007 20 5 12.9 22.5 0.00 0.00 0.00 1 1016.4
20260906034503 21 5 16.1 24.1 0.00 0.00 0.00 1 1016.1
20260906033059 21 5 16.1 24.1 0.00 0.00 0.00 1 1016.0
20260906031603 21 5 16.1 29.0 0.00 0.00 0.00 1 1016.1
20260906030052 21 5 12.9 22.5 0.00 0.00 0.00 1 1016.0
20260906024546 21 5 17.7 29.0 0.00 0.00 0.00 1 1015.7
20260906023101 22 5 17.7 25.7 0.00 0.00 0.00 1 1015.4
20260906021539 22 5 22.5 29.0 0.00 0.00 0.00 1 1015.3
20260906020036 22 5 12.9 24.1 0.00 0.00 0.00 1 1015.2
20260906014541 23 5 22.5 29.0 0.00 0.00 0.00 1 1014.9
20260906013026 23 5 16.1 22.5 0.00 0.00 0.00 1 1014.8
20260906011524 23 5 9.7 17.7 0.00 0.00 0.00 1 1014.7
20260906010017 23 5 11.3 17.7 0.00 0.00 0.00 1 1014.6
20260906004514 23 5 8.0 17.7 0.00 0.00 0.00 1 1014.5
20260906003008 23 5 8.0 16.1 0.00 0.00 0.00 1 1014.6
20260906001504 23 5 9.7 16.1 0.00 0.00 0.00 1 1014.7
20260906000108 24 5 8.0 14.5 0.00 0.00 0.00 1 1014.5
20260905234600 25 5 9.7 17.7 0.00 0.00 0.00 1 1014.8
20260905233054 25 5 9.7 16.1 0.00 0.00 0.00 1 1014.7
20260905231547 26 5 9.7 20.9 0.00 0.00 0.00 1 1014.7
20260905230044 26 5 12.9 19.3 0.00 0.00 0.00 1 1014.5
20260905224539 26 5 6.4 16.1 0.00 0.00 0.00 1 1014.8
20260905223036 26 5 11.3 19.3 0.00 0.00 0.00 1 1014.5
20260905221528 25 5 11.3 16.1 0.00 0.00 0.00 1 1014.5
20260905220024 25 5 11.3 22.5 0.00 0.00 0.00 1 1014.4
20260905214520 26 5 16.1 22.5 0.00 0.00 0.00 1 1014.4
20260905213016 26 5 17.7 22.5 0.00 0.00 0.00 1 1014.2
20260905211511 26 5 14.5 27.4 0.00 0.00 0.00 1 1014.3
20260905210007 27 5 19.3 25.7 0.00 0.00 0.00 1 1014.4
20260905204503 27 5 17.7 27.4 0.00 0.00 0.00 1 1014.4
20260905203101 27 5 17.7 29.0 0.00 0.00 0.00 1 1014.2
20260905201554 27 5 24.1 29.0 0.00 0.00 0.00 1 1014.4
20260905200054 28 5 22.5 29.0 0.00 0.00 0.00 1 1014.4
20260905194546 28 5 19.3 27.4 0.00 0.00 0.00 1 1014.4
20260905193042 28 5 16.1 25.7 0.00 0.00 0.00 1 1014.3
20260905191538 28 5 12.9 22.5 0.00 0.00 0.00 1 1014.4
20260905190045 29 5 16.1 22.5 0.00 0.00 0.00 1 1014.4
20260905184529 29 5 12.9 24.1 0.00 0.00 0.00 1 1014.2
20260905183024 29 5 14.5 27.4 0.00 0.00 0.00 1 1014.3
20260905181524 28 5 17.7 24.1 0.00 0.00 0.00 1 1014.4
20260905180019 28 5 14.5 20.9 0.00 0.00 0.00 1 1014.6
20260905174510 28 5 14.5 19.3 0.00 0.00 0.00 1 1014.7
20260905173006 29 5 14.5 20.9 0.00 0.00 0.00 1 1014.7
20260905171502 28 5 14.5 22.5 0.00 0.00 0.00 1 1014.6
20260905170058 28 5 16.1 22.5 0.00 0.00 0.00 1 1014.7
20260905164557 28 5 14.5 22.5 0.00 0.00 0.00 1 1014.5
20260905163048 28 5 16.1 24.1 0.00 0.00 0.00 1 1014.7
20260905161543 28 5 16.1 19.3 0.00 0.00 0.00 1 1014.7
20260905160040 27 5 12.9 22.5 0.00 0.00 0.00 1 1014.7
20260905154535 27 5 16.1 24.1 0.00 0.00 0.00 1 1014.8
20260905153047 27 5 14.5 20.9 0.00 0.00 0.00 1 1014.6
20260905151527 26 5 16.1 22.5 0.00 0.00 0.00 1 1014.5
20260905150022 25 5 16.1 22.5 0.00 0.00 0.00 1 1014.3
20260905144519 25 5 16.1 22.5 0.00 0.00 0.00 1 1014.2